Find Starlink 4336

NORAD ID: 53051 Int'l Des: 2022-077 Owner: SPXS Country: US Constellation: starlink operational
LEOCIRCULARRETROGRADESSO

現在のビュー

3D地球を読み込み中...

About Starlink 4336

Starlink 4336 (NORAD 53051) is a starlink constellation satellite (v1.5) launched Jul 11, 2022 by SPXS of US. It operates in LEO, CIRCULAR, RETROGRADE, SSO orbit with a mass of 297.00 kg.

次回通過

Passes for default location (London). Set your location on the main map for personalized predictions.

高度履歴

Loading altitude history...

軌道要素

1 53051U 22077J 26264.28793090 -.00000107 00000-0 -97313-6 0 9999
2 53051 97.2855 79.1391 0001451 92.2556 267.8852 15.33436300230418
Epoch: Sep 21, 2026 • Age: 11 hours

現在のステータス

高度 469.1 km
遠地点 / 近地点 N/A
速度 7.63 km/s
衛星直下点 30.49°N, 164.58°E
打ち上げ日 Jul 11, 2022
運用期間 4.1 years
タイプ internet

技術仕様

分類 Payload
質量 297.00 kg
乾燥質量 275.00 kg
長さ 0.20 m
スパン 9.00 m
形状 ? Box + pan
製造者 SPXS
バスタイプ Starlink
フェーズステータス In Orbit
所有者/国 SPXS/US

Most Searched